Flag for Japan Weather past 2 weeks in Fukuoka, Japan

Now
88 °F

Passing clouds.


Feels Like: 93 °F
Forecast: 78 / 90 °F
Wind: 9 mph from North

Location: Fukuoka Airport

Current Time: Jul 29, 2014 at 5:06:07 PM

Latest Report: Jul 29, 2014 at 4:30 PM


Visibility: N/A

Pressure: 29.80 "Hg

Humidity: 55%

Dew point: 70 °F

Location of FukuokaLocation

Historic Weather in Fukuoka — Graph

°F

Fukuoka temperature yesterday

Maximum temperature yesterday: 86 °F (at 11:30 AM)
Minimum temperature yesterday: 72 °F (at 4:00 AM)
Average temperature yesterday: 79 °F

Past Weeks' High & Low Weather Summary

 TemperatureHumidityPressure
High95 °F (Jul 26, 2:30 PM)94% (Jul 15, 1:00 AM)29.95 "Hg (Jul 15, 1:00 AM)
Low72 °F (Jul 28, 4:00 AM)44% (Jul 29, 11:30 AM)29.68 "Hg (Jul 23, 3:00 PM)
Average82 °F75%29.83 "Hg
* Reported Jul 14 4:00 PM — Jul 29 4:00 PM, Fukuoka, Weather by CustomWeather, © 2014

Note: Actual official high and low records may vary slightly from our data, if they occured in-between our weather recording intervals... More about our weather records

Advertising

Fukuoka weather history for previous 24 hours

 ConditionsComfort  
Time TempWeatherWind HumidityBarometerVisibility
4:00 PM
Jul 29
90 °FPassing clouds.12 mph55%29.80 "HgN/A
3:30 PM90 °FPassing clouds.12 mph55%29.80 "HgN/A
3:00 PM90 °FPassing clouds.12 mph55%29.80 "HgN/A
2:30 PM90 °FPassing clouds.9 mph52%29.80 "HgN/A
2:00 PM90 °FPassing clouds.12 mph55%29.80 "HgN/A
1:30 PM90 °FPassing clouds.14 mph55%29.80 "HgN/A
1:00 PM90 °FPassing clouds.12 mph55%29.80 "HgN/A
12:30 PM91 °FPassing clouds.10 mph52%29.80 "HgN/A
12:00 PM90 °FPassing clouds.5 mph46%29.80 "HgN/A
11:30 AM91 °FPassing clouds.6 mph44%29.80 "HgN/A
11:00 AM90 °FPassing clouds.5 mph46%29.80 "HgN/A
10:30 AM88 °FPassing clouds.5 mph49%29.80 "HgN/A
10:00 AM88 °FPassing clouds.7 mph49%29.80 "HgN/A
9:30 AM86 °FPassing clouds.7 mph52%29.83 "HgN/A
9:00 AM86 °FPassing clouds.8 mph55%29.83 "HgN/A
8:30 AM84 °FPassing clouds.8 mph55%29.83 "HgN/A
8:00 AM82 °FPassing clouds.9 mph58%29.83 "HgN/A
7:30 AM81 °FPassing clouds.9 mph62%29.83 "HgN/A
7:00 AM79 °FPassing clouds.9 mph65%29.80 "HgN/A
6:30 AM77 °FSunny.8 mph69%29.80 "Hg10 mi
5:30 AM75 °FSunny.6 mph74%29.80 "Hg10 mi
5:00 AM75 °FClear.8 mph74%29.80 "Hg10 mi
4:30 AM75 °FClear.7 mph74%29.80 "Hg10 mi
4:00 AM75 °FClear.5 mph74%29.77 "Hg10 mi
3:30 AM75 °FClear.5 mph74%29.77 "Hg10 mi
3:00 AM77 °FClear.3 mph69%29.77 "Hg10 mi
2:30 AM77 °FClear.5 mph74%29.77 "Hg10 mi
2:00 AM75 °FClear.6 mph78%29.77 "Hg10 mi
1:30 AM77 °FClear.3 mph79%29.74 "Hg10 mi
1:00 AM77 °FClear.5 mph74%29.74 "Hg10 mi
12:30 AM77 °FClear.3 mph74%29.77 "Hg10 mi
12:00 AM79 °FClear.3 mph70%29.77 "Hg10 mi
11:30 PM
Jul 28
79 °FClear.5 mph70%29.74 "Hg10 mi
11:00 PM79 °FClear.1 mph74%29.77 "Hg10 mi
10:30 PM81 °FClear.3 mph70%29.77 "Hg10 mi
10:00 PM81 °FClear.5 mph70%29.77 "Hg10 mi
9:30 PM81 °FPassing clouds.3 mph70%29.74 "HgN/A
9:00 PM81 °FClear.2 mph70%29.74 "Hg10 mi
8:30 PM81 °FClear.1 mph66%29.74 "Hg10 mi
8:00 PM81 °FClear.1 mph66%29.74 "Hg10 mi
7:30 PM81 °FPassing clouds.5 mph66%29.74 "HgN/A
7:00 PM81 °FPartly sunny.5 mph66%29.74 "HgN/A
6:30 PM82 °FPartly sunny.7 mph62%29.74 "HgN/A
6:00 PM82 °FPartly sunny.8 mph62%29.74 "HgN/A
5:30 PM84 °FPartly sunny.10 mph58%29.74 "HgN/A
5:00 PM84 °FScattered clouds.9 mph58%29.74 "HgN/A
Weather by CustomWeather, © 2014

See weather overviewHow to use our weather pages